GFSWCAN_850_dewp_105.txt.gz
Dewpoint
-7 -5 -4 -4 -5 -6 -7 -8 -6 -5 -5 -6 -6 -3 -4 -3 -1 -1 -1 -1 -2 -2 -4 -5 -5 -6 -6 -4 -3 -4 -3 -1 -1 0 1 2 2 -0 1 2 2 2 2 2 2 1 0 1 2 2 2 1 1 1
-5 -5 -5 -4 -5 -5 -7 -8 -6 -6 -5 -7 -6 -3 -4 -4 -1 -1 -1 -1 -2 -2 -2 -2 -3 -4 -5 -5 -4 -5 -3 -1 -1 -1 0 2 2 1 1 0 1 3 3 4 2 2 1 1 1 0 0 -1 -1 -1
-6 -5 -6 -6 -5 -5 -6 -7 -7 -6 -6 -8 -6 -4 -4 -3 -2 -1 -1 -1 -2 -2 -2 -3 -3 -6 -4 -4 -4 -3 -3 -3 -1 -0 0 0 1 2 2 1 2 2 1 3 3 2 1 -0 -1 -2 -2 -2 -2 -2
-7 -7 -6 -7 -5 -5 -6 -8 -7 -6 -6 -8 -4 -4 -4 -3 -2 -1 -1 -1 -1 -2 -2 -4 -5 -6 -7 -6 -5 -4 -3 -2 -1 -1 -2 -1 -0 1 2 2 2 1 1 1 2 1 -0 -2 -2 -3 -3 -3 -3 -3
-7 -7 -7 -5 -6 -5 -6 -7 -7 -6 -7 -6 -6 -4 -4 -3 -2 -1 -1 -1 -1 -2 -2 -3 -5 -7 -7 -6 -5 -4 -3 -2 -2 -2 -1 -1 -0 1 1 1 -0 -1 -2 -1 -0 -2 -1 -3 -4 -4 -4 -5 -5 -5
-7 -7 -8 -6 -5 -5 -7 -8 -8 -6 -7 -6 -5 -5 -3 -3 -1 -1 -2 -1 -1 -2 -2 -2 -6 -7 -5 -4 -5 -4 -4 -2 -2 -1 -1 -0 0 1 1 1 -2 -2 -3 -4 -2 -3 -3 -4 -4 -5 -5 -6 -6 -6
-8 -7 -7 -6 -5 -5 -7 -7 -7 -7 -7 -5 -4 -2 -2 -2 -1 -1 -2 -3 -1 -2 -2 -3 -4 -4 -0 -3 -2 -2 -2 -2 -2 -2 0 0 0 1 0 0 -3 -4 -4 -4 -3 -3 -3 -4 -5 -6 -6 -7 -7 -7
-8 -7 -9 -7 -5 -5 -6 -7 -7 -6 -5 -4 -3 -2 -2 -1 -1 -1 -1 -3 -2 -2 -2 -4 -4 -4 -1 -1 -1 -1 -1 -1 -0 -0 0 -0 -0 -0 -0 -4 -5 -5 -5 -5 -5 -4 -5 -6 -6 -7 -7 -7 -8 -8
-8 -7 -8 -7 -5 -5 -7 -7 -6 -5 -4 -3 -2 -2 -1 -1 -1 -1 -1 -2 -2 -3 -3 -3 -2 -2 -1 0 -1 -1 -1 -1 -1 0 1 1 -1 -1 -4 -5 -6 -7 -7 -7 -6 -6 -6 -7 -8 -8 -8 -8 -8 -9
-8 -8 -7 -5 -6 -7 -8 -7 -5 -4 -3 -2 -2 -2 -2 -2 -1 -1 -2 -2 -2 -2 -1 -2 -3 -2 -1 -0 -1 -1 -1 -0 1 -1 -1 -0 -4 -6 -7 -7 -8 -9 -10 -10 -6 -8 -8 -8 -9 -9 -10 -10 -10 -11
-7 -7 -6 -7 -8 -10 -6 -5 -4 -3 -3 -2 -2 -1 -2 -1 -1 -1 -2 -2 -2 -3 -2 -2 -3 -2 -1 -0 0 -1 -1 -0 -1 0 0 -2 -4 -7 -8 -9 -9 -10 -11 -11 -11 -10 -10 -10 -10 -10 -11 -11 -11 -11
-6 -7 -8 -10 -8 -5 -4 -3 -3 -2 -2 -2 -1 -2 -1 -1 -1 -1 -2 -2 -3 -3 -3 -3 -2 -2 -0 -0 -1 -0 1 0 1 -1 -1 -4 -8 -8 -9 -9 -10 -11 -12 -12 -12 -12 -11 -11 -11 -11 -11 -12 -12 -12
-9 -11 -8 -6 -5 -4 -3 -2 -2 -1 -1 -1 -1 -1 -2 -3 -1 -2 -2 -2 -3 -3 -2 -1 -0 -0 -0 -1 -1 0 0 1 -1 -3 -6 -8 -9 -9 -9 -10 -11 -12 -13 -13 -13 -12 -12 -12 -12 -12 -12 -13 -12 -13
-8 -7 -5 -4 -3 -2 -2 -2 -1 -2 -1 -2 -3 -5 -3 -4 -6 -6 -4 -3 -3 -2 -1 -0 -1 -1 -2 -1 -2 0 -2 -0 -2 -3 -7 -9 -9 -10 -11 -11 -12 -13 -13 -13 -13 -13 -13 -13 -13 -13 -13 -13 -13 -13
-4 -4 -3 -3 -2 -2 -2 -2 -1 -3 -4 -6 -8 -6 -8 -8 -7 -6 -5 -4 -3 -2 -1 -1 -3 -3 -4 -4 -6 -3 -3 -5 -6 -7 -10 -10 -10 -11 -12 -13 -13 -14 -14 -14 -14 -14 -14 -14 -14 -14 -14 -14 -14 -14
-3 -3 -2 -2 -2 -2 -3 -2 -5 -9 -9 -9 -9 -8 -8 -8 -8 -7 -6 -5 -4 -2 -2 -3 -5 -6 -6 -8 -7 -7 -5 -6 -9 -11 -10 -11 -11 -12 -13 -13 -14 -14 -14 -14 -14 -14 -14 -14 -14 -14 -14 -14 -14 -14
-2 -2 -2 -1 -1 -2 -4 -8 -10 -9 -9 -9 -9 -9 -9 -9 -9 -8 -7 -6 -4 -4 -5 -6 -6 -6 -9 -9 -9 -11 -10 -11 -12 -11 -11 -12 -12 -13 -13 -13 -14 -14 -14 -14 -14 -14 -14 -14 -14 -14 -14 -15 -15 -15
-2 -2 -1 -1 -1 -1 -5 -10 -10 -9 -8 -9 -10 -10 -10 -9 -9 -9 -7 -5 -6 -8 -8 -8 -10 -10 -10 -9 -10 -12 -11 -11 -11 -11 -11 -12 -12 -13 -13 -13 -13 -14 -14 -14 -14 -14 -14 -14 -14 -14 -15 -15 -18 -18
-2 -2 -4 -3 -3 -7 -10 -10 -10 -8 -8 -9 -9 -10 -10 -10 -9 -9 -8 -9 -10 -11 -11 -12 -12 -10 -11 -12 -13 -11 -11 -11 -12 -11 -12 -12 -12 -13 -13 -13 -13 -13 -14 -14 -14 -14 -14 -14 -14 -15 -15 -15 -17 -20
-2 -4 -7 -8 -8 -9 -9 -9 -9 -8 -8 -9 -10 -10 -10 -10 -10 -10 -8 -8 -9 -11 -12 -12 -12 -12 -11 -11 -11 -11 -11 -12 -13 -12 -12 -12 -12 -12 -12 -13 -13 -13 -13 -13 -14 -14 -14 -14 -14 -15 -15 -15 -16 -18
-8 -8 -8 -9 -9 -9 -8 -9 -8 -9 -9 -9 -10 -11 -11 -13 -13 -13 -13 -13 -13 -12 -12 -12 -11 -10 -11 -11 -12 -12 -12 -13 -13 -14 -14 -13 -13 -13 -13 -13 -13 -13 -13 -13 -14 -14 -14 -14 -15 -15 -15 -15 -16 -18
-8 -9 -9 -10 -9 -8 -8 -8 -8 -9 -8 -8 -8 -10 -13 -13 -14 -14 -14 -13 -13 -13 -12 -11 -10 -11 -12 -12 -12 -13 -12 -13 -13 -13 -12 -12 -12 -12 -12 -12 -13 -13 -13 -13 -14 -14 -14 -15 -15 -15 -16 -18 -19 -19
-9 -9 -9 -8 -8 -8 -6 -6 -6 -7 -8 -7 -9 -10 -11 -12 -13 -14 -13 -13 -12 -12 -11 -11 -10 -11 -13 -12 -12 -11 -11 -12 -12 -12 -12 -12 -13 -13 -13 -13 -13 -13 -14 -14 -14 -15 -15 -15 -16 -17 -19 -19 -19 -20
-11 -10 -9 -8 -7 -8 -6 -8 -8 -9 -10 -10 -10 -11 -13 -14 -15 -15 -13 -13 -12 -12 -11 -12 -11 -11 -11 -11 -12 -12 -12 -12 -13 -13 -13 -13 -14 -14 -14 -14 -14 -14 -15 -15 -16 -17 -18 -17 -17 -17 -18 -19 -19 -19
-10 -10 -9 -12 -9 -11 -12 -14 -12 -11 -13 -13 -11 -12 -13 -14 -14 -15 -14 -13 -12 -12 -12 -12 -13 -13 -13 -13 -13 -13 -14 -14 -14 -15 -15 -15 -16 -16 -16 -16 -17 -17 -17 -17 -18 -19 -19 -19 -18 -17 -18 -18 -18 -19
-11 -10 -10 -12 -11 -11 -12 -12 -14 -14 -14 -14 -14 -13 -14 -16 -16 -14 -14 -13 -13 -13 -13 -14 -14 -14 -14 -15 -15 -15 -15 -15 -15 -16 -17 -17 -17 -16 -16 -16 -16 -16 -16 -16 -17 -18 -19 -20 -20 -19 -18 -18 -19 -19
-13 -14 -11 -11 -10 -11 -13 -12 -12 -14 -15 -14 -14 -18 -17 -17 -16 -15 -14 -14 -14 -14 -15 -15 -15 -15 -15 -15 -14 -15 -15 -15 -15 -16 -21 -25 -25 -24 -23 -20 -18 -18 -18 -18 -18 -18 -19 -19 -20 -21 -20 -20 -20 -19
-13 -13 -14 -13 -13 -13 -17 -18 -17 -16 -16 -13 -16 -17 -17 -18 -15 -12 -13 -14 -15 -14 -13 -13 -13 -14 -15 -15 -15 -16 -18 -18 -20 -25 -24 -23 -22 -22 -22 -26 -27 -26 -24 -25 -25 -23 -20 -20 -20 -20 -20 -20 -20 -20
-14 -15 -15 -19 -15 -15 -16 -17 -16 -14 -14 -15 -17 -17 -16 -14 -14 -12 -14 -15 -14 -14 -14 -14 -13 -13 -14 -16 -20 -22 -24 -25 -24 -24 -23 -24 -24 -22 -23 -27 -28 -27 -27 -26 -24 -24 -23 -21 -20 -20 -20 -20 -20 -20
-14 -15 -15 -16 -19 -17 -16 -15 -14 -14 -14 -14 -15 -15 -14 -14 -13 -13 -13 -14 -14 -15 -15 -15 -15 -15 -16 -18 -20 -23 -28 -30 -28 -27 -26 -26 -26 -27 -27 -27 -28 -28 -28 -27 -26 -25 -24 -24 -24 -23 -22 -21 -21 -21
-14 -14 -15 -15 -16 -15 -15 -14 -14 -15 -15 -15 -15 -15 -15 -14 -13 -12 -13 -13 -14 -14 -14 -14 -15 -16 -17 -19 -23 -28 -29 -28 -30 -30 -29 -29 -29 -28 -28 -28 -28 -29 -29 -28 -28 -27 -26 -25 -24 -24 -23 -22 -22 -22
-15 -15 -16 -18 -15 -14 -14 -14 -15 -15 -15 -15 -15 -15 -14 -14 -14 -13 -12 -12 -13 -14 -15 -15 -15 -16 -18 -20 -25 -28 -28 -28 -30 -29 -29 -29 -29 -29 -28 -29 -29 -29 -29 -29 -29 -28 -28 -27 -27 -27 -27 -26 -25 -26
-14 -14 -14 -14 -14 -14 -14 -13 -14 -14 -14 -15 -15 -15 -16 -15 -15 -14 -13 -13 -14 -14 -15 -15 -16 -17 -17 -19 -26 -28 -26 -28 -29 -29 -29 -29 -29 -29 -30 -30 -30 -30 -29 -29 -29 -29 -29 -29 -29 -29 -30 -30 -30 -29

GFSWCAN_850_dewp_108.txt.gz
Dewpoint
-5 -7 -5 -4 -4 -4 -4 -5 -6 -8 -6 -5 -7 -5 -4 -3 -3 -2 -1 -1 -2 -2 -3 -3 -4 -4 -5 -4 -3 -5 -4 -1 -1 0 0 -0 1 -1 -1 -1 3 1 2 2 1 1 -0 1 1 4 3 1 1 1
-6 -6 -8 -5 -4 -4 -4 -5 -7 -8 -5 -5 -6 -6 -4 -3 -4 -1 -1 -1 -1 -2 -1 -3 -2 -2 -3 -4 -4 -4 -3 -3 -3 -1 -2 -1 1 0 -0 -0 1 3 2 3 4 4 1 0 0 0 1 -0 -1 -1
-7 -7 -5 -5 -5 -4 -4 -6 -7 -7 -7 -6 -6 -8 -6 -3 -4 -2 -1 -1 -2 -2 -2 -2 -3 -3 -3 -3 -3 -3 -4 -3 -2 -1 -0 -1 1 2 2 0 1 1 1 2 3 2 1 -1 -1 -1 -2 -2 -3 -3
-7 -8 -7 -6 -5 -6 -5 -5 -7 -7 -7 -6 -6 -9 -6 -4 -4 -2 -1 -1 -1 -2 -2 -4 -5 -6 -6 -6 -4 -2 -3 -2 -1 -0 -2 -2 -1 -3 -0 -0 -0 1 0 2 2 0 -1 -2 -3 -3 -2 -3 -4 -4
-8 -7 -8 -8 -6 -6 -5 -5 -6 -7 -7 -6 -6 -8 -5 -4 -3 -2 -1 -1 -1 -2 -2 -3 -3 -4 -5 -5 -4 -2 -1 -2 -2 -1 -2 -2 -3 -0 -0 -0 1 -1 -1 0 1 -2 -1 -3 -4 -4 -4 -5 -5 -5
-7 -8 -8 -8 -9 -6 -6 -4 -5 -6 -7 -7 -7 -7 -4 -3 -3 -2 -1 -1 -2 -1 -2 -2 -4 -3 -4 -4 -2 -1 -1 -1 -2 -2 -3 -2 -0 1 2 0 -2 -2 -3 -3 -2 -3 -3 -4 -5 -4 -4 -5 -6 -7
-8 -8 -9 -8 -9 -8 -5 -5 -6 -8 -8 -8 -8 -6 -5 -4 -2 -2 -1 -2 -1 -1 -3 -3 -4 -3 -1 -1 -1 -1 -1 -1 -2 -3 -2 -2 -1 1 -0 -0 -3 -3 -4 -4 -3 -3 -4 -4 -5 -6 -6 -7 -7 -8
-8 -8 -8 -8 -9 -9 -6 -5 -6 -7 -8 -8 -7 -5 -3 -3 -2 -2 -1 -2 -2 -2 -2 -2 -3 -4 -1 -1 -1 -1 -1 -1 -1 -2 -0 1 -1 -0 0 -4 -4 -4 -4 -5 -4 -4 -5 -6 -6 -7 -7 -7 -8 -8
-9 -8 -9 -8 -8 -8 -5 -5 -6 -8 -7 -7 -4 -3 -3 -2 -2 -1 -1 -1 -2 -2 -3 -3 -2 -1 -0 -1 -0 -1 -1 -1 -2 -1 -2 0 -0 1 -3 -5 -6 -7 -7 -7 -6 -5 -6 -7 -7 -8 -8 -8 -8 -9
-9 -8 -8 -9 -8 -8 -5 -5 -6 -7 -6 -4 -4 -3 -2 -2 -1 -1 -2 -2 -2 -2 -2 -3 -4 -2 -1 -1 -0 -0 -1 -1 -0 -1 -1 -0 -2 -6 -6 -6 -7 -8 -9 -8 -6 -7 -8 -7 -8 -9 -9 -10 -10 -10
-8 -8 -9 -9 -7 -6 -5 -6 -7 -7 -5 -4 -3 -2 -2 -1 -1 -2 -2 -2 -2 -2 -2 -3 -3 -2 -1 -0 1 -0 -0 -1 -1 -0 -0 -0 -2 -6 -7 -8 -8 -9 -10 -10 -9 -9 -10 -9 -9 -9 -10 -11 -11 -12
-8 -8 -7 -8 -7 -5 -6 -7 -8 -6 -4 -4 -2 -2 -2 -1 -1 -0 -1 -2 -3 -3 -3 -3 -3 -3 -0 -0 -0 0 2 0 -0 -0 1 -0 -6 -8 -8 -9 -9 -10 -10 -11 -11 -11 -11 -11 -11 -11 -12 -13 -13 -12
-8 -7 -7 -7 -6 -7 -9 -8 -6 -5 -4 -3 -2 -1 -2 -2 -0 -1 -1 -2 -2 -3 -2 -1 -0 -1 -1 -1 -0 1 2 2 -1 1 -1 -5 -8 -8 -9 -10 -11 -12 -12 -12 -12 -13 -12 -12 -12 -12 -12 -13 -13 -13
-8 -7 -6 -7 -9 -8 -6 -5 -4 -4 -4 -3 -2 -3 -1 -1 -1 -1 -3 -2 -2 -1 -1 -1 -1 -0 -0 -0 -0 0 -0 0 1 -0 -3 -8 -8 -9 -10 -11 -11 -13 -14 -13 -13 -13 -13 -13 -13 -13 -14 -13 -13 -13
-7 -9 -10 -8 -6 -5 -4 -3 -3 -4 -3 -5 -3 -2 -4 -5 -5 -4 -4 -2 -3 -1 -1 -1 -1 -2 -2 -1 -3 -1 0 -1 -4 -3 -7 -9 -9 -10 -11 -12 -13 -14 -14 -14 -14 -14 -14 -14 -14 -14 -14 -14 -14 -14
-7 -6 -5 -4 -4 -3 -4 -3 -3 -3 -6 -7 -7 -6 -6 -5 -5 -4 -3 -3 -3 -1 -1 -1 -2 -2 -3 -4 -3 -3 -2 -2 -6 -9 -10 -10 -11 -11 -12 -14 -14 -14 -14 -14 -14 -14 -14 -14 -14 -14 -14 -15 -15 -15
-4 -4 -3 -3 -3 -3 -3 -5 -6 -7 -7 -8 -7 -8 -6 -5 -5 -6 -5 -5 -3 -2 -0 -4 -2 -2 -6 -5 -5 -8 -5 -8 -10 -10 -10 -10 -11 -13 -13 -14 -14 -14 -14 -14 -14 -14 -14 -14 -14 -15 -15 -15 -15 -15
-3 -3 -2 -2 -2 -3 -10 -10 -8 -9 -9 -8 -8 -8 -8 -8 -7 -7 -7 -5 -4 -5 -6 -5 -8 -6 -5 -4 -5 -9 -10 -10 -10 -10 -11 -12 -12 -13 -13 -13 -14 -14 -14 -14 -14 -14 -14 -14 -15 -15 -15 -16 -17 -17
-3 -2 -2 -2 -2 -7 -9 -9 -8 -8 -8 -8 -8 -8 -8 -9 -9 -8 -8 -8 -8 -8 -8 -9 -7 -7 -7 -10 -9 -9 -10 -10 -11 -11 -12 -12 -13 -13 -13 -13 -14 -14 -14 -14 -14 -14 -14 -14 -14 -15 -15 -16 -16 -16
-3 -3 -4 -5 -7 -10 -8 -8 -8 -8 -8 -8 -8 -8 -8 -9 -9 -9 -8 -9 -9 -9 -9 -9 -8 -9 -9 -9 -9 -9 -9 -10 -11 -11 -12 -12 -12 -13 -13 -13 -13 -13 -13 -14 -14 -14 -14 -14 -15 -15 -15 -15 -16 -16
-6 -7 -7 -8 -10 -10 -7 -7 -8 -9 -9 -9 -9 -10 -9 -9 -9 -9 -10 -11 -10 -11 -10 -10 -10 -11 -11 -11 -10 -10 -10 -10 -10 -11 -11 -12 -12 -12 -13 -13 -13 -13 -13 -13 -13 -14 -14 -14 -15 -15 -16 -16 -17 -17
-9 -9 -9 -9 -9 -8 -7 -8 -8 -8 -8 -8 -9 -11 -10 -9 -10 -11 -12 -11 -11 -11 -10 -10 -11 -11 -11 -12 -11 -11 -13 -13 -13 -12 -12 -12 -11 -12 -12 -12 -12 -13 -13 -13 -14 -14 -14 -15 -15 -16 -16 -17 -17 -18
-9 -9 -9 -9 -8 -7 -6 -6 -6 -8 -7 -8 -10 -10 -10 -11 -12 -13 -11 -12 -11 -12 -12 -12 -11 -11 -13 -13 -13 -13 -13 -12 -11 -11 -12 -12 -12 -12 -13 -13 -13 -13 -13 -14 -15 -15 -15 -16 -16 -17 -18 -18 -18 -18
-11 -10 -9 -7 -6 -6 -6 -6 -8 -9 -9 -9 -10 -11 -12 -12 -13 -12 -11 -11 -11 -12 -11 -11 -12 -12 -12 -11 -11 -11 -12 -12 -13 -13 -12 -12 -13 -13 -14 -14 -14 -14 -14 -15 -15 -16 -17 -17 -18 -17 -18 -18 -18 -18
-10 -9 -9 -8 -8 -7 -7 -8 -8 -9 -8 -9 -9 -10 -11 -13 -11 -11 -10 -11 -11 -11 -12 -12 -11 -11 -11 -12 -12 -12 -13 -12 -12 -13 -15 -14 -15 -15 -15 -16 -17 -17 -17 -16 -16 -17 -20 -20 -19 -18 -18 -18 -18 -19
-8 -10 -8 -8 -8 -8 -8 -7 -8 -9 -9 -9 -9 -11 -12 -11 -11 -10 -12 -11 -11 -11 -12 -11 -11 -11 -11 -12 -12 -13 -14 -15 -16 -15 -17 -17 -17 -14 -14 -15 -15 -16 -17 -17 -17 -17 -19 -21 -20 -19 -18 -18 -18 -19
-8 -9 -10 -11 -10 -10 -9 -10 -11 -10 -9 -9 -10 -11 -11 -12 -12 -12 -12 -11 -11 -11 -12 -13 -13 -13 -13 -14 -15 -15 -15 -15 -16 -16 -18 -22 -24 -24 -21 -16 -16 -18 -20 -20 -20 -19 -18 -19 -20 -22 -20 -20 -20 -19
-11 -12 -9 -12 -12 -12 -11 -11 -10 -10 -10 -12 -12 -11 -12 -13 -12 -12 -12 -13 -13 -14 -14 -15 -14 -14 -15 -15 -16 -16 -16 -17 -18 -23 -26 -25 -24 -24 -24 -26 -28 -28 -27 -27 -26 -25 -21 -20 -20 -21 -22 -19 -21 -21
-12 -13 -14 -15 -14 -14 -13 -12 -12 -13 -13 -13 -12 -13 -14 -14 -14 -13 -14 -14 -14 -15 -15 -15 -15 -15 -16 -16 -16 -18 -19 -21 -26 -26 -26 -25 -26 -25 -24 -28 -28 -28 -28 -27 -26 -25 -23 -21 -21 -20 -21 -20 -21 -21
-13 -14 -14 -15 -15 -13 -14 -15 -14 -14 -14 -14 -14 -14 -14 -15 -13 -13 -14 -14 -15 -15 -15 -15 -16 -16 -16 -17 -20 -21 -24 -28 -28 -27 -26 -26 -27 -27 -27 -28 -28 -28 -28 -27 -26 -26 -25 -25 -24 -23 -22 -21 -21 -22
-15 -13 -14 -14 -14 -14 -15 -14 -15 -15 -15 -14 -15 -14 -14 -14 -13 -13 -14 -14 -14 -14 -14 -14 -15 -16 -17 -19 -20 -23 -28 -30 -29 -29 -30 -29 -29 -29 -28 -28 -28 -28 -28 -28 -28 -27 -27 -26 -25 -24 -23 -23 -23 -22
-14 -14 -14 -13 -14 -14 -14 -14 -14 -13 -13 -13 -14 -14 -14 -13 -12 -13 -13 -13 -13 -13 -14 -15 -15 -17 -18 -19 -22 -28 -29 -28 -29 -30 -29 -29 -29 -29 -29 -29 -29 -29 -29 -29 -29 -28 -28 -28 -27 -27 -26 -26 -25 -25
-15 -14 -14 -14 -13 -13 -14 -13 -14 -14 -14 -14 -13 -14 -14 -13 -13 -13 -13 -13 -13 -13 -14 -14 -15 -16 -18 -20 -25 -27 -27 -27 -29 -30 -29 -29 -29 -29 -30 -30 -30 -30 -30 -29 -29 -29 -29 -29 -29 -29 -30 -30 -29 -28

GFSWCAN_850_dewp_111.txt.gz
Dewpoint
-4 -5 -5 -4 -3 -4 -4 -5 -7 -7 -6 -6 -5 -7 -4 -3 -3 -2 -1 -1 -1 -1 -3 -3 -3 -4 -5 -4 -1 -2 -4 -0 -2 -0 -1 -0 0 -1 -2 -2 1 1 2 4 1 2 3 0 1 3 2 2 1 0
-5 -5 -6 -5 -4 -3 -3 -4 -5 -6 -7 -6 -6 -6 -6 -4 -3 -2 -2 -1 -1 -2 -1 -1 -1 -2 -2 -3 -2 -4 -3 -3 -4 -1 -1 -2 0 0 -1 1 -1 2 1 2 5 4 1 0 0 -0 0 -1 -1 -1
-7 -5 -5 -6 -6 -4 -4 -4 -4 -6 -8 -6 -5 -5 -7 -5 -3 -3 -2 -1 -2 -2 -2 -2 -2 -2 -2 -2 -2 -3 -3 -4 -3 -0 -1 -1 -0 0 1 2 -0 1 -1 1 1 0 -0 -1 -1 -1 -2 -2 -3 -3
-7 -8 -8 -6 -6 -6 -4 -3 -4 -7 -8 -7 -6 -6 -7 -7 -4 -4 -2 -2 -1 -2 -1 -4 -3 -3 -3 -3 -2 -2 -3 -2 -2 -1 -2 -2 -1 -5 -1 -1 0 0 -1 2 2 0 -1 -1 -2 -2 -2 -3 -4 -4
-8 -8 -8 -7 -6 -5 -5 -5 -4 -6 -8 -8 -7 -5 -8 -8 -4 -3 -2 -2 -2 -2 -0 -3 -3 -4 -3 -3 -2 -2 -2 -2 -2 -1 -2 -2 -5 -1 -2 1 2 -2 -0 1 1 -2 -1 -2 -3 -3 -3 -4 -5 -5
-9 -9 -8 -8 -8 -7 -5 -6 -5 -5 -7 -8 -7 -6 -8 -9 -4 -2 -2 -1 -2 -2 -1 -2 -3 -4 -2 -3 -3 -3 -3 -2 -1 -2 -3 -3 -3 0 2 2 -2 -2 -2 -3 -2 -3 -3 -4 -4 -4 -5 -5 -5 -7
-9 -9 -10 -9 -9 -9 -7 -5 -4 -5 -6 -6 -7 -7 -9 -6 -3 -2 -1 -1 -2 -1 -2 -2 -4 -3 -3 -2 -1 -1 -1 -1 -2 -2 -3 -3 -3 1 2 1 -2 -3 -3 -3 -3 -3 -3 -4 -4 -5 -5 -6 -6 -6
-8 -9 -9 -9 -9 -9 -9 -8 -5 -5 -6 -8 -8 -7 -8 -5 -3 -3 -2 -2 -1 -2 -1 -2 -3 -4 -1 -1 -2 -2 -1 -1 -1 -2 -2 -1 -1 -1 1 -3 -4 -4 -3 -4 -4 -4 -5 -5 -6 -6 -6 -6 -7 -8
-8 -9 -9 -9 -9 -10 -10 -8 -5 -6 -7 -7 -7 -8 -6 -4 -3 -2 -4 -2 -2 -2 -1 -2 -1 -1 -1 -1 -0 -0 -1 -1 -4 -1 -2 -2 -2 1 -2 -4 -5 -6 -5 -5 -4 -4 -5 -6 -7 -7 -7 -8 -8 -8
-8 -8 -11 -10 -10 -9 -9 -8 -5 -6 -8 -7 -6 -4 -3 -2 -3 -2 -2 -2 -2 -2 -1 -2 -4 -2 -2 0 -1 -0 -0 1 -0 -2 -4 -0 -0 -5 -5 -6 -7 -7 -8 -7 -5 -6 -7 -6 -7 -8 -9 -10 -10 -9
-8 -9 -10 -10 -10 -7 -8 -6 -5 -7 -7 -4 -4 -4 -2 -2 -2 -2 -2 -1 -2 -1 -3 -3 -4 -2 -2 0 2 -0 1 -2 -0 -2 -1 -1 -1 -5 -6 -7 -8 -8 -9 -9 -9 -9 -9 -9 -9 -9 -10 -10 -10 -11
-7 -8 -9 -10 -10 -8 -7 -5 -5 -6 -5 -4 -3 -2 -2 -1 -1 -0 -1 -3 -3 -4 -2 -3 -3 -3 -0 -0 -0 0 0 1 -1 -1 0 -1 -5 -7 -8 -8 -9 -9 -10 -10 -10 -10 -10 -10 -10 -11 -11 -12 -12 -13
-8 -9 -8 -9 -9 -8 -6 -5 -6 -7 -5 -3 -4 -2 -2 -1 1 -0 -0 -2 -2 -3 -1 -2 -0 -2 -1 -1 -1 1 2 1 -1 1 1 -4 -7 -8 -9 -10 -11 -11 -11 -11 -11 -12 -13 -13 -13 -13 -14 -14 -14 -13
-9 -9 -8 -8 -8 -6 -5 -5 -8 -7 -5 -4 -3 -1 0 -0 -1 -2 -4 -2 -2 -1 -2 -2 -1 -2 -1 -0 1 1 1 1 2 1 -1 -6 -7 -9 -10 -10 -11 -12 -12 -13 -13 -14 -14 -13 -13 -14 -14 -14 -14 -14
-10 -10 -9 -7 -6 -5 -6 -8 -7 -5 -4 -4 -3 0 -1 -2 -2 -2 -2 -1 -2 -1 -1 -0 -1 -2 -1 1 -0 0 1 2 -1 -1 -5 -8 -8 -9 -10 -10 -12 -13 -13 -13 -14 -14 -15 -15 -15 -15 -15 -15 -14 -14
-9 -8 -6 -6 -6 -7 -7 -5 -5 -4 -4 -5 -5 -4 -4 -3 -3 -2 -2 -2 -2 -0 -0 -1 -0 -0 0 -0 -0 0 -0 0 -4 -6 -8 -9 -9 -10 -11 -12 -13 -13 -13 -14 -14 -14 -14 -14 -15 -15 -14 -14 -14 -14
-6 -5 -7 -7 -6 -6 -5 -5 -5 -5 -6 -6 -6 -5 -4 -2 -2 -3 -3 -3 -2 -1 1 -2 -0 -0 -4 -2 -2 -5 -3 -5 -8 -8 -8 -9 -10 -12 -13 -13 -13 -13 -13 -13 -14 -14 -14 -14 -14 -14 -14 -15 -15 -15
-7 -8 -6 -6 -5 -5 -5 -6 -6 -6 -6 -6 -6 -6 -6 -5 -4 -4 -5 -4 -2 -2 -4 -3 -5 -3 -2 -2 -3 -7 -8 -8 -9 -9 -10 -10 -11 -12 -12 -13 -13 -13 -13 -14 -14 -14 -14 -13 -13 -13 -14 -15 -14 -15
-5 -4 -3 -4 -5 -5 -6 -6 -6 -7 -7 -7 -7 -6 -6 -6 -6 -6 -5 -4 -5 -5 -6 -6 -3 -3 -4 -6 -7 -8 -9 -9 -10 -10 -10 -11 -12 -12 -13 -13 -13 -13 -13 -13 -12 -12 -13 -13 -13 -13 -13 -14 -14 -14
-3 -4 -4 -3 -5 -6 -6 -6 -7 -8 -7 -7 -7 -7 -6 -6 -7 -6 -6 -7 -7 -6 -5 -5 -5 -6 -7 -7 -8 -8 -8 -9 -10 -10 -11 -11 -12 -12 -12 -12 -11 -12 -12 -13 -13 -13 -12 -13 -13 -13 -14 -14 -14 -14
-3 -4 -4 -4 -6 -6 -7 -8 -8 -8 -7 -7 -8 -7 -7 -7 -6 -6 -7 -8 -6 -7 -7 -8 -8 -8 -8 -8 -8 -9 -9 -10 -10 -10 -11 -11 -11 -11 -11 -11 -12 -11 -11 -11 -11 -12 -13 -12 -13 -14 -14 -15 -15 -16
-5 -6 -6 -8 -6 -6 -7 -7 -8 -8 -7 -8 -8 -8 -6 -6 -6 -7 -9 -7 -8 -9 -8 -8 -9 -9 -9 -9 -9 -9 -9 -9 -9 -10 -10 -11 -11 -11 -11 -11 -11 -11 -11 -12 -12 -12 -13 -13 -14 -15 -15 -16 -16 -16
-9 -9 -9 -7 -6 -6 -6 -5 -7 -7 -7 -7 -9 -8 -7 -7 -9 -11 -8 -9 -9 -9 -9 -9 -9 -9 -10 -10 -11 -11 -11 -10 -11 -11 -10 -10 -10 -10 -11 -11 -12 -12 -12 -12 -13 -13 -13 -15 -15 -15 -16 -16 -16 -17
-10 -9 -8 -4 -6 -5 -5 -6 -8 -8 -8 -8 -9 -9 -9 -9 -12 -10 -7 -9 -9 -10 -10 -10 -10 -10 -10 -10 -10 -10 -10 -11 -10 -10 -11 -11 -11 -11 -12 -12 -12 -13 -13 -13 -14 -14 -15 -15 -17 -16 -16 -16 -16 -16
-7 -8 -6 -6 -6 -6 -6 -6 -7 -8 -7 -8 -8 -9 -9 -11 -8 -8 -8 -9 -10 -10 -10 -10 -10 -11 -10 -10 -10 -11 -11 -11 -11 -11 -11 -12 -12 -12 -13 -13 -13 -14 -14 -14 -14 -15 -15 -16 -16 -16 -17 -16 -17 -17
-6 -8 -6 -6 -6 -6 -6 -5 -6 -7 -8 -7 -8 -10 -10 -9 -8 -8 -10 -9 -9 -10 -10 -9 -10 -10 -11 -11 -11 -11 -11 -12 -12 -13 -13 -13 -13 -12 -13 -13 -14 -14 -17 -16 -15 -15 -15 -16 -16 -17 -17 -17 -18 -18
-6 -7 -9 -10 -9 -8 -7 -8 -9 -8 -7 -7 -8 -8 -9 -9 -9 -10 -9 -9 -9 -9 -9 -9 -10 -11 -11 -11 -12 -12 -13 -14 -13 -12 -16 -19 -20 -20 -14 -13 -14 -14 -19 -23 -19 -16 -16 -16 -17 -17 -17 -17 -18 -18
-10 -9 -8 -9 -9 -10 -9 -8 -8 -8 -8 -10 -10 -9 -9 -10 -9 -11 -10 -9 -9 -9 -9 -10 -11 -11 -11 -11 -12 -16 -17 -17 -17 -19 -23 -27 -28 -27 -26 -26 -26 -27 -29 -28 -27 -25 -18 -17 -17 -18 -18 -18 -18 -19
-9 -10 -12 -13 -11 -11 -11 -10 -10 -11 -12 -10 -8 -10 -12 -12 -12 -12 -10 -10 -10 -10 -10 -11 -11 -11 -12 -14 -15 -17 -18 -19 -20 -26 -23 -14 -22 -26 -26 -27 -29 -28 -26 -28 -28 -28 -26 -20 -18 -18 -19 -19 -19 -20
-10 -11 -12 -13 -12 -10 -11 -12 -11 -12 -12 -12 -13 -13 -13 -13 -14 -12 -11 -11 -11 -11 -12 -12 -13 -13 -14 -16 -17 -17 -18 -20 -21 -18 -15 -15 -15 -22 -27 -28 -28 -28 -25 -20 -22 -28 -28 -27 -25 -24 -21 -21 -20 -20
-11 -10 -11 -11 -11 -11 -12 -13 -13 -13 -12 -12 -12 -11 -12 -13 -14 -13 -12 -11 -11 -11 -12 -13 -14 -13 -15 -17 -18 -20 -22 -27 -30 -28 -28 -27 -29 -29 -29 -28 -28 -28 -26 -27 -26 -23 -22 -23 -19 -19 -19 -20 -20 -21
-11 -11 -12 -11 -11 -12 -13 -11 -11 -11 -11 -11 -11 -12 -12 -11 -11 -13 -13 -12 -12 -12 -13 -13 -13 -14 -15 -17 -19 -21 -24 -28 -30 -29 -30 -30 -29 -29 -29 -29 -29 -29 -29 -29 -29 -28 -29 -28 -23 -20 -20 -20 -20 -21
-12 -12 -12 -12 -12 -12 -12 -11 -12 -12 -11 -12 -12 -11 -11 -11 -11 -13 -13 -13 -13 -12 -13 -13 -13 -15 -17 -19 -20 -22 -28 -29 -28 -29 -30 -30 -29 -29 -29 -30 -30 -30 -30 -30 -29 -29 -29 -29 -29 -29 -29 -29 -29 -28

GFSWCAN_850_dewp_114.txt.gz
Dewpoint
-2 -2 -2 -3 -2 -2 -3 -4 -5 -7 -6 -5 -5 -5 -5 -3 -3 -2 -1 -1 -2 -1 -3 -3 -3 -3 -3 -3 -0 -2 -3 -1 -3 -0 -1 -0 -0 -1 -1 -2 1 2 3 3 3 2 4 1 -0 3 2 2 2 1
-3 -4 -3 -2 -3 -2 -3 -4 -5 -7 -7 -6 -6 -5 -7 -3 -3 -3 -1 -1 -2 -1 -1 -1 -4 -4 -1 -1 -2 -3 -4 -4 -5 -0 -0 -1 -1 -0 -1 2 2 3 1 2 4 3 0 0 1 0 1 -1 -1 -2
-5 -5 -4 -6 -5 -4 -3 -4 -4 -6 -6 -8 -6 -6 -6 -6 -4 -3 -2 -2 -2 -2 -2 -1 -2 -2 -2 -1 -1 -2 -3 -4 -3 0 0 -0 -0 -1 2 1 0 0 -2 1 1 -0 -1 -1 -1 -1 -1 -1 -3 -3
-6 -5 -4 -5 -6 -4 -3 -3 -3 -4 -6 -8 -6 -5 -5 -7 -6 -4 -3 -2 -2 -1 -1 -4 -3 -3 -3 -2 -2 -2 -3 -1 -1 -1 -1 -1 -1 -5 -2 -2 0 -0 -1 1 1 -1 -1 -2 -3 -2 -2 -2 -2 -3
-6 -5 -5 -4 -5 -7 -5 -4 -3 -4 -7 -8 -7 -5 -5 -7 -7 -5 -3 -2 -2 -2 -0 -2 -3 -4 -3 -3 -3 -3 -3 -3 -2 -2 -1 -1 -4 -2 -2 -2 1 -2 -1 0 -0 -2 -1 -3 -3 -3 -4 -4 -4 -5
-9 -6 -7 -6 -7 -6 -6 -6 -5 -4 -7 -8 -7 -6 -6 -7 -8 -5 -2 -3 -2 -2 -2 -2 -2 -2 -3 -3 -3 -3 -2 -2 -1 -2 -3 -3 -4 -2 1 1 -2 -2 -3 -2 -2 -3 -3 -3 -4 -4 -4 -5 -5 -5
-9 -10 -9 -8 -8 -7 -6 -5 -5 -5 -6 -7 -7 -7 -6 -8 -8 -2 -2 -1 -1 -1 -1 -1 -4 -3 -3 -2 -2 -1 -1 -1 -2 -2 -3 -4 -4 -1 0 -0 -2 -3 -3 -3 -3 -3 -3 -4 -4 -4 -4 -5 -5 -5
-10 -11 -10 -9 -8 -9 -7 -6 -4 -4 -5 -7 -7 -7 -7 -8 -6 -5 -2 -2 -2 -1 -1 -1 -3 -1 -2 -2 -3 -2 -2 -1 -1 -3 -4 -3 -3 0 1 -3 -4 -4 -4 -3 -4 -4 -4 -5 -5 -5 -5 -5 -5 -7
-8 -9 -10 -10 -11 -9 -9 -8 -6 -4 -4 -6 -8 -7 -7 -7 -4 -3 -3 -2 -2 -2 -1 -1 -2 -2 -1 -1 -0 -1 -1 -1 -3 -1 -3 -2 -1 1 -1 -4 -5 -5 -5 -6 -3 -4 -5 -5 -6 -7 -7 -7 -6 -8
-9 -9 -10 -11 -10 -11 -9 -9 -7 -4 -6 -8 -6 -4 -5 -6 -5 -3 -3 -2 -2 -2 -1 -1 -4 -2 -2 -1 -0 -1 -1 -1 0 -1 -4 0 -1 -4 -5 -5 -6 -7 -7 -7 -4 -4 -8 -7 -6 -8 -8 -9 -9 -9
-9 -8 -9 -11 -10 -11 -9 -9 -6 -5 -7 -5 -5 -5 -3 -4 -5 -3 -2 -2 -2 -1 -2 -3 -4 -2 -2 -0 -0 0 1 -1 -1 -2 -1 -1 -1 -4 -6 -6 -7 -8 -8 -8 -8 -9 -9 -9 -9 -9 -10 -10 -11 -11
-8 -9 -9 -11 -11 -11 -8 -8 -5 -5 -5 -5 -4 -3 -2 -2 -2 -1 -0 -3 -3 -4 -3 -3 -3 -4 -1 0 -0 0 0 -1 -0 -1 -0 -0 -4 -6 -7 -8 -9 -9 -9 -10 -10 -10 -10 -11 -10 -10 -11 -12 -13 -13
-8 -8 -9 -11 -12 -10 -7 -6 -5 -5 -6 -5 -4 -3 -3 -2 -0 -1 -0 -2 -1 -4 -1 -2 -1 -2 0 -1 -1 -0 -0 -0 -0 2 0 -4 -6 -8 -9 -10 -10 -10 -10 -10 -11 -12 -13 -12 -12 -13 -13 -14 -14 -13
-8 -9 -9 -10 -12 -10 -6 -5 -5 -5 -5 -4 -3 -2 -1 -1 -1 -2 -2 -1 -3 -2 -1 -2 -2 -1 -1 -1 1 -1 -0 0 1 2 -2 -5 -7 -9 -9 -9 -10 -11 -12 -12 -13 -13 -13 -13 -14 -14 -14 -14 -14 -14
-8 -8 -9 -11 -13 -11 -6 -5 -5 -6 -6 -4 -3 -1 -1 -1 -1 -2 -0 -0 1 -1 -1 -1 -1 -2 0 1 -1 -0 0 0 -0 -2 -5 -7 -8 -8 -9 -10 -11 -12 -12 -13 -13 -14 -14 -14 -14 -15 -14 -15 -14 -14
-8 -9 -8 -9 -10 -8 -4 -5 -6 -6 -5 -4 -4 -3 -3 -2 -2 -2 -1 -1 -0 -0 -2 -1 -0 -1 -0 -0 0 1 -0 1 -3 -6 -7 -8 -9 -10 -11 -12 -12 -12 -13 -13 -13 -14 -14 -14 -14 -14 -14 -14 -14 -14
-10 -8 -9 -10 -8 -5 -5 -6 -5 -5 -4 -4 -4 -4 -4 -2 -1 -3 -2 -2 -1 0 1 -2 -1 -1 -2 -2 -2 -3 -2 -5 -6 -7 -7 -9 -10 -11 -12 -12 -13 -13 -13 -13 -13 -13 -14 -13 -13 -13 -14 -14 -14 -15
-8 -7 -9 -6 -5 -5 -5 -5 -5 -4 -6 -5 -5 -4 -4 -4 -3 -4 -3 -2 -1 -1 -2 -1 -4 -3 -2 -1 -1 -5 -6 -6 -7 -8 -9 -10 -11 -12 -12 -12 -13 -13 -13 -13 -13 -14 -13 -12 -12 -13 -13 -14 -13 -13
-5 -6 -6 -6 -6 -5 -5 -5 -5 -5 -5 -6 -5 -5 -5 -5 -5 -4 -3 -3 -3 -3 -4 -4 -1 -2 -3 -5 -5 -6 -7 -8 -9 -9 -10 -11 -11 -12 -12 -12 -12 -13 -13 -12 -12 -11 -13 -13 -13 -13 -13 -13 -13 -14
-5 -6 -7 -7 -6 -5 -5 -5 -5 -7 -6 -6 -5 -5 -4 -5 -5 -5 -4 -4 -4 -3 -3 -3 -3 -4 -5 -5 -7 -8 -8 -9 -10 -10 -11 -11 -12 -12 -12 -11 -12 -12 -12 -13 -13 -13 -12 -12 -12 -13 -14 -14 -13 -14
-5 -4 -5 -6 -4 -4 -5 -4 -6 -7 -7 -5 -6 -6 -5 -5 -5 -4 -5 -6 -4 -4 -5 -5 -6 -6 -6 -7 -8 -8 -10 -9 -9 -10 -10 -11 -11 -11 -11 -11 -12 -11 -11 -11 -11 -13 -13 -12 -13 -14 -14 -14 -15 -15
-5 -4 -5 -4 -4 -4 -4 -5 -7 -6 -6 -6 -5 -5 -5 -5 -5 -5 -7 -5 -5 -6 -6 -7 -7 -7 -8 -9 -9 -8 -8 -8 -9 -10 -10 -11 -10 -10 -11 -11 -11 -11 -11 -11 -12 -12 -12 -13 -14 -15 -15 -16 -15 -16
-4 -4 -4 -4 -5 -5 -5 -5 -5 -6 -6 -5 -6 -6 -6 -6 -6 -8 -6 -6 -7 -7 -7 -8 -8 -8 -8 -8 -9 -9 -10 -10 -10 -10 -10 -9 -9 -10 -10 -11 -11 -11 -11 -12 -12 -12 -13 -14 -15 -15 -16 -16 -15 -16
-4 -5 -4 -4 -5 -6 -4 -4 -7 -7 -7 -6 -6 -6 -6 -7 -9 -8 -6 -7 -8 -8 -8 -8 -8 -9 -9 -9 -10 -10 -9 -10 -10 -9 -10 -11 -11 -11 -11 -11 -11 -12 -12 -12 -13 -13 -14 -14 -16 -15 -16 -16 -16 -17
-5 -7 -4 -5 -5 -6 -6 -6 -6 -7 -6 -7 -7 -7 -7 -9 -6 -5 -6 -7 -8 -9 -9 -9 -9 -10 -10 -10 -10 -9 -10 -11 -11 -10 -11 -11 -11 -12 -12 -12 -12 -13 -14 -14 -14 -14 -14 -16 -16 -16 -15 -16 -15 -17
-5 -7 -5 -6 -5 -5 -5 -5 -5 -6 -7 -6 -7 -9 -9 -7 -6 -6 -9 -7 -9 -9 -10 -9 -9 -10 -10 -10 -10 -10 -11 -11 -11 -11 -12 -11 -12 -12 -12 -13 -13 -13 -15 -17 -14 -14 -14 -16 -16 -16 -17 -16 -17 -18
-5 -6 -8 -9 -8 -7 -5 -6 -7 -6 -6 -6 -6 -7 -7 -6 -7 -8 -7 -7 -8 -9 -9 -9 -10 -10 -10 -11 -11 -11 -11 -11 -12 -12 -12 -13 -13 -13 -12 -12 -13 -13 -14 -18 -21 -17 -15 -15 -16 -17 -17 -16 -16 -17
-9 -8 -7 -8 -8 -8 -7 -7 -6 -6 -6 -8 -8 -7 -7 -7 -7 -9 -7 -8 -9 -10 -9 -9 -9 -10 -11 -11 -11 -11 -12 -13 -13 -15 -18 -21 -23 -26 -27 -24 -18 -18 -24 -28 -28 -24 -19 -16 -16 -17 -17 -17 -17 -17
-8 -9 -11 -11 -9 -9 -9 -8 -8 -10 -10 -9 -7 -8 -10 -10 -10 -9 -8 -8 -9 -9 -8 -9 -10 -10 -11 -11 -12 -13 -16 -17 -18 -20 -25 -23 -27 -26 -29 -28 -28 -29 -29 -29 -29 -29 -27 -21 -19 -17 -17 -18 -18 -18
-9 -9 -10 -11 -10 -9 -10 -10 -9 -10 -11 -10 -11 -12 -12 -12 -12 -10 -9 -9 -9 -9 -9 -10 -10 -10 -11 -12 -12 -13 -15 -17 -18 -23 -22 -14 -15 -20 -26 -28 -29 -29 -24 -20 -24 -28 -30 -29 -26 -25 -22 -22 -20 -19
-9 -8 -9 -9 -9 -10 -11 -12 -12 -11 -10 -10 -9 -9 -11 -13 -12 -11 -10 -10 -10 -10 -10 -11 -11 -12 -12 -12 -13 -13 -13 -15 -20 -22 -19 -19 -19 -22 -28 -28 -27 -27 -23 -21 -22 -19 -19 -24 -19 -18 -18 -19 -19 -19
-10 -9 -10 -9 -10 -11 -11 -9 -9 -9 -10 -9 -10 -11 -11 -10 -12 -12 -11 -11 -10 -11 -12 -12 -12 -12 -12 -12 -13 -13 -16 -21 -27 -28 -28 -29 -30 -30 -29 -29 -29 -28 -27 -26 -25 -23 -27 -27 -21 -19 -19 -19 -19 -20
-10 -10 -10 -10 -10 -10 -10 -9 -11 -11 -10 -10 -10 -9 -9 -9 -11 -14 -13 -12 -12 -11 -12 -12 -12 -12 -13 -13 -15 -17 -20 -24 -28 -29 -29 -30 -30 -30 -30 -30 -30 -30 -30 -30 -28 -28 -28 -29 -28 -27 -28 -27 -27 -27

GFSWCAN_850_dewp_117.txt.gz
Dewpoint
-2 -2 -1 -1 -2 -3 -4 -5 -5 -5 -5 -5 -5 -5 -7 -3 -2 -3 -2 -2 -4 -2 -5 -4 -2 0 -1 -2 -1 -2 -3 -3 -2 -1 1 -0 0 -0 1 4 4 2 2 1 2 2 3 -0 -0 1 1 1 1 1
-2 -3 -2 -2 -2 -2 -3 -3 -4 -6 -6 -5 -5 -5 -6 -4 -3 -3 -2 -2 -2 -2 -3 -4 -6 -3 -5 -5 -0 -2 -2 -3 -3 -2 -1 -1 -0 -0 0 4 1 3 1 3 1 1 -0 -1 -1 -1 -0 -1 -2 -2
-3 -3 -2 -2 -2 -2 -2 -3 -4 -7 -6 -6 -6 -6 -5 -6 -3 -3 -2 -2 -2 -3 -3 -2 -4 -2 -2 -3 -4 -1 -3 -3 -1 -1 -0 -0 -0 -2 2 -0 0 1 -0 1 1 -0 -1 -2 -2 -2 -2 -2 -2 -3
-4 -4 -5 -3 -2 -2 -2 -3 -3 -6 -7 -8 -8 -6 -6 -6 -5 -4 -4 -2 -2 -2 -2 -3 -1 -2 -3 -3 -2 -3 -2 -2 -2 -3 -1 -1 -1 -3 -2 -1 1 0 -1 -1 -0 -2 -2 -3 -3 -3 -3 -3 -3 -3
-6 -6 -5 -5 -6 -5 -3 -3 -3 -4 -5 -8 -8 -5 -5 -6 -7 -5 -4 -3 -2 -1 -1 -2 -7 -4 -5 -3 -3 -2 -2 -2 -4 -3 -3 -3 -3 -2 -2 0 1 -2 -2 -2 -1 -3 -2 -3 -4 -4 -4 -4 -4 -5
-6 -5 -5 -4 -5 -5 -3 -3 -3 -3 -6 -8 -8 -6 -6 -6 -7 -7 -3 -5 -4 -1 -2 -2 -5 -3 -2 -2 -3 -4 -2 -2 -2 -1 -2 -3 -4 -3 -0 -1 -2 -3 -3 -3 -2 -3 -3 -4 -4 -4 -5 -5 -5 -5
-6 -5 -5 -4 -4 -6 -5 -5 -4 -3 -6 -8 -8 -6 -7 -6 -8 -5 -3 -2 -1 -2 -2 -3 -2 -3 -3 -3 -3 -2 -1 -1 -1 -2 -2 -3 -4 -3 -1 -1 -2 -3 -3 -3 -3 -3 -4 -4 -5 -5 -4 -4 -5 -6
-9 -10 -7 -6 -5 -5 -5 -5 -5 -4 -6 -7 -7 -7 -7 -7 -8 -6 -2 -2 -1 -1 -3 -3 -2 -2 -3 -1 -2 -3 -3 -2 -2 -2 -3 -3 -3 -2 -0 -2 -3 -4 -4 -4 -4 -5 -5 -5 -6 -6 -5 -5 -6 -7
-9 -10 -10 -9 -7 -7 -6 -6 -5 -5 -5 -7 -7 -7 -6 -7 -7 -6 -5 -3 -2 -2 -2 -1 -2 -3 -2 -1 -1 -2 -2 -1 -3 -2 -3 -3 -3 -2 -1 -4 -5 -6 -6 -6 -4 -4 -5 -6 -6 -7 -7 -7 -8 -9
-10 -11 -11 -10 -8 -8 -8 -7 -6 -5 -5 -5 -7 -7 -5 -8 -7 -7 -2 -2 -2 -2 -2 -1 -3 -3 -2 -0 0 -1 -0 -0 -1 -2 -3 -2 -3 -4 -5 -6 -7 -7 -7 -5 -4 -8 -8 -7 -8 -9 -10 -10 -10 -10
-10 -9 -10 -11 -11 -10 -8 -8 -5 -4 -5 -7 -6 -7 -8 -7 -4 -3 -3 -2 -2 -1 -2 -2 -3 -2 -2 -2 -3 -1 0 -0 -0 -1 -0 1 -3 -5 -6 -7 -8 -8 -8 -8 -8 -9 -9 -9 -9 -10 -10 -11 -12 -12
-10 -10 -9 -11 -11 -11 -9 -8 -6 -5 -7 -7 -8 -4 -3 -4 -4 -4 -2 -2 -2 -3 -3 -2 -3 -3 -2 -1 -1 -1 -1 -2 -1 -1 -0 -2 -5 -6 -8 -9 -9 -9 -10 -10 -10 -10 -10 -10 -10 -11 -11 -12 -13 -13
-12 -10 -9 -11 -12 -12 -10 -8 -5 -6 -7 -6 -5 -3 -3 -3 -3 -3 -2 -2 -3 -4 -2 -2 -3 -1 -1 -1 -1 -2 -2 -2 -1 -0 -2 -4 -6 -9 -10 -10 -10 -10 -10 -11 -12 -13 -13 -12 -13 -13 -13 -13 -13 -13
-9 -9 -9 -10 -12 -12 -8 -7 -5 -4 -5 -6 -4 -5 -3 -2 -2 -4 -3 -3 -4 -2 -2 -3 -2 -1 -1 -2 -1 -3 -3 -1 -1 -1 -3 -6 -7 -8 -9 -10 -11 -12 -12 -13 -13 -13 -14 -14 -14 -14 -14 -14 -14 -14
-9 -8 -8 -11 -13 -10 -7 -6 -5 -5 -7 -5 -4 -4 -2 -1 -2 -2 -1 0 0 -2 -2 -3 -2 -2 -2 -3 -3 -3 -1 -2 -1 -4 -7 -7 -9 -9 -10 -11 -12 -13 -13 -13 -14 -14 -14 -14 -14 -14 -14 -14 -14 -14
-9 -7 -8 -12 -14 -11 -6 -5 -4 -6 -8 -5 -4 -4 -3 -2 -2 -2 -1 -0 0 -2 -3 -2 -3 -2 -3 -3 -1 -3 -1 -2 -4 -7 -8 -8 -9 -10 -11 -12 -12 -13 -13 -13 -14 -14 -14 -14 -14 -15 -15 -15 -15 -15
-7 -6 -9 -11 -13 -10 -5 -5 -6 -9 -7 -4 -4 -5 -4 -3 -2 -2 -1 -1 -1 -1 -1 -3 -2 -4 -2 -3 -1 -3 -3 -8 -7 -7 -8 -10 -10 -11 -12 -13 -13 -13 -13 -13 -14 -14 -14 -14 -14 -14 -15 -15 -15 -15
-7 -9 -12 -11 -9 -6 -5 -7 -6 -5 -5 -5 -5 -4 -4 -4 -3 -3 -3 -3 -0 -1 -2 -1 -3 -3 -4 -2 -3 -5 -6 -7 -8 -9 -9 -10 -12 -12 -13 -13 -13 -13 -13 -14 -14 -13 -12 -13 -12 -14 -14 -13 -13 -14
-9 -9 -10 -10 -6 -6 -6 -6 -5 -4 -5 -5 -5 -6 -5 -5 -4 -4 -4 -2 -1 -2 -4 -4 -4 -2 -3 -4 -5 -6 -8 -9 -9 -10 -11 -12 -12 -12 -12 -12 -13 -14 -13 -12 -12 -13 -13 -13 -14 -14 -13 -13 -13 -14
-8 -9 -14 -10 -5 -6 -5 -5 -7 -6 -6 -7 -6 -6 -5 -4 -5 -5 -3 -3 -3 -3 -3 -4 -3 -4 -4 -5 -6 -7 -8 -10 -11 -11 -11 -11 -12 -12 -13 -13 -13 -13 -13 -13 -13 -13 -12 -13 -13 -13 -14 -15 -14 -14
-6 -10 -7 -5 -5 -4 -5 -5 -4 -6 -6 -6 -5 -6 -5 -6 -5 -5 -4 -4 -3 -3 -5 -5 -5 -5 -6 -7 -8 -8 -9 -10 -11 -12 -12 -12 -13 -12 -11 -11 -13 -13 -12 -11 -12 -14 -13 -13 -13 -14 -15 -14 -15 -16
-5 -5 -5 -5 -6 -4 -4 -4 -5 -7 -6 -6 -6 -6 -6 -4 -4 -4 -5 -4 -4 -5 -6 -6 -6 -6 -7 -8 -8 -9 -11 -10 -11 -12 -12 -12 -11 -11 -11 -13 -12 -10 -10 -12 -11 -11 -12 -13 -14 -15 -15 -16 -16 -17
-5 -5 -6 -6 -4 -5 -5 -5 -5 -7 -7 -5 -4 -5 -5 -4 -5 -7 -5 -4 -6 -7 -7 -7 -7 -8 -8 -9 -10 -9 -8 -8 -10 -12 -12 -12 -13 -12 -12 -12 -10 -12 -12 -13 -14 -14 -13 -14 -15 -16 -16 -16 -16 -16
-5 -5 -4 -4 -4 -4 -5 -4 -4 -4 -5 -5 -4 -5 -5 -5 -8 -8 -5 -7 -8 -7 -7 -8 -8 -8 -9 -9 -8 -9 -9 -10 -12 -12 -10 -10 -10 -10 -11 -12 -12 -12 -12 -12 -13 -14 -14 -15 -16 -16 -16 -17 -16 -17
-4 -5 -4 -3 -4 -4 -4 -5 -5 -5 -5 -5 -7 -7 -7 -8 -9 -7 -5 -6 -7 -8 -8 -8 -8 -9 -9 -9 -10 -10 -9 -10 -12 -9 -10 -12 -12 -12 -12 -12 -13 -13 -13 -13 -14 -15 -15 -15 -16 -16 -16 -17 -16 -16
-4 -6 -5 -4 -4 -4 -5 -4 -5 -5 -6 -8 -8 -7 -8 -9 -7 -7 -7 -7 -7 -8 -8 -9 -9 -9 -10 -11 -11 -9 -9 -11 -12 -12 -11 -11 -12 -14 -14 -14 -14 -15 -16 -18 -13 -14 -15 -15 -16 -17 -17 -18 -17 -18
-5 -6 -8 -7 -6 -4 -6 -6 -7 -7 -8 -8 -8 -9 -9 -9 -9 -8 -6 -7 -8 -8 -9 -9 -10 -11 -9 -9 -11 -10 -11 -10 -11 -11 -11 -11 -12 -13 -12 -13 -13 -14 -14 -14 -18 -18 -16 -15 -15 -17 -18 -17 -16 -17
-8 -7 -8 -7 -7 -7 -7 -8 -8 -8 -8 -7 -7 -9 -10 -10 -8 -7 -7 -8 -8 -8 -9 -9 -9 -9 -9 -10 -11 -11 -11 -11 -11 -11 -13 -12 -12 -13 -13 -12 -13 -14 -15 -18 -26 -27 -21 -17 -16 -16 -17 -18 -17 -17
-8 -9 -10 -13 -9 -9 -9 -8 -8 -10 -10 -9 -9 -10 -10 -10 -10 -8 -8 -8 -8 -9 -8 -8 -9 -9 -10 -10 -11 -12 -12 -12 -12 -12 -13 -16 -20 -23 -25 -26 -26 -25 -25 -28 -30 -30 -28 -24 -21 -19 -19 -19 -19 -18
-8 -8 -10 -11 -12 -9 -10 -10 -10 -11 -11 -10 -12 -12 -12 -12 -10 -9 -8 -9 -9 -9 -8 -9 -9 -9 -10 -11 -11 -11 -12 -13 -13 -14 -19 -25 -29 -29 -29 -30 -30 -30 -30 -29 -28 -29 -30 -30 -26 -24 -22 -19 -20 -19
-9 -8 -8 -9 -10 -10 -12 -12 -12 -11 -10 -9 -9 -11 -13 -12 -11 -10 -9 -9 -9 -9 -9 -9 -10 -10 -10 -11 -11 -13 -14 -14 -15 -17 -22 -23 -22 -23 -26 -29 -29 -29 -29 -30 -28 -29 -28 -28 -28 -24 -20 -20 -20 -19
-9 -8 -9 -10 -10 -12 -11 -10 -9 -9 -11 -9 -10 -12 -11 -12 -12 -12 -11 -10 -10 -10 -10 -10 -10 -11 -11 -11 -12 -13 -15 -15 -17 -18 -20 -21 -22 -24 -29 -30 -29 -29 -29 -29 -29 -30 -29 -28 -27 -23 -21 -20 -20 -21
-10 -10 -10 -10 -10 -10 -11 -9 -9 -10 -9 -9 -9 -9 -10 -12 -13 -14 -14 -12 -12 -11 -11 -12 -12 -12 -13 -13 -13 -13 -13 -15 -16 -18 -21 -26 -29 -30 -30 -29 -30 -30 -29 -30 -30 -30 -30 -30 -29 -29 -28 -26 -26 -27

GFSWCAN_850_dewp_123.txt.gz
Dewpoint
-1 -2 -2 -2 -2 -2 -3 -3 -3 -5 -5 -5 -6 -10 -6 -3 -2 -2 -3 -4 -5 -5 -4 -4 -3 -2 -1 -2 -3 -3 -4 -4 -3 -2 -1 -1 -1 -1 0 2 2 1 1 0 -0 -0 -0 -2 -2 -0 -0 -2 -2 -2
-1 -2 -2 -2 -2 -2 -2 -3 -3 -3 -5 -5 -6 -8 -6 -3 -2 -3 -4 -4 -5 -6 -5 -4 -5 -6 -6 -2 -3 -2 -3 -3 -1 -4 -4 -2 -1 -2 -1 0 -1 -0 1 0 1 0 -1 -2 -2 -2 -2 -2 -2 -3
-1 -1 -2 -2 -2 -2 -2 -2 -3 -4 -5 -5 -5 -7 -5 -3 -2 -3 -4 -5 -5 -6 -6 -5 -2 -3 -4 -4 -4 -4 -3 -1 -2 -2 -2 -2 -1 -4 -1 -2 -1 -0 -2 -1 0 -1 -2 -3 -3 -3 -3 -3 -3 -3
-3 -2 -1 -1 -2 -2 -3 -3 -3 -5 -5 -5 -5 -6 -7 -4 -3 -3 -3 -4 -5 -5 -4 -3 -3 -3 -2 -2 -3 -4 -2 -3 -4 -3 -3 -3 -1 -3 -2 -2 -1 -1 -3 -2 -2 -2 -2 -3 -4 -4 -4 -4 -4 -5
-3 -2 -2 -1 -2 -2 -3 -3 -5 -6 -5 -6 -6 -6 -7 -6 -3 -3 -3 -4 -5 -4 -4 -5 -6 -3 -3 -3 -3 -2 -3 -2 -3 -4 -5 -3 -3 -3 -3 -2 -1 -3 -3 -4 -6 -3 -3 -4 -4 -5 -5 -5 -5 -5
-2 -3 -3 -2 -2 -2 -3 -4 -5 -6 -7 -6 -5 -6 -7 -7 -5 -5 -7 -6 -5 -5 -3 -5 -6 -4 -3 -4 -3 -3 -1 -1 -2 -3 -2 -3 -3 -3 -5 -4 -2 -3 -3 -3 -2 -4 -4 -4 -5 -5 -4 -5 -6 -6
-3 -3 -2 -2 -2 -2 -3 -5 -7 -7 -8 -7 -5 -6 -6 -7 -7 -7 -5 -3 -4 -2 -3 -5 -4 -2 -3 -3 -3 -3 -2 -1 -1 -2 -2 -3 -4 -2 -4 -1 -2 -3 -3 -4 -4 -4 -4 -5 -5 -5 -5 -6 -6 -7
-4 -4 -4 -2 -3 -2 -3 -4 -7 -6 -8 -6 -5 -6 -7 -7 -7 -4 -3 -3 -3 -3 -3 -5 -4 -2 -2 -2 -2 -2 -2 -3 -3 -2 -3 -3 -3 -3 -3 -2 -2 -3 -4 -5 -5 -5 -5 -6 -6 -6 -6 -7 -7 -8
-5 -5 -4 -4 -3 -3 -3 -3 -5 -7 -8 -7 -7 -7 -7 -8 -8 -5 -3 -2 -3 -2 -3 -4 -4 -4 -2 -2 -2 -3 -4 -4 -4 -3 -3 -3 -5 -4 -5 -3 -3 -3 -5 -4 -4 -5 -6 -7 -8 -8 -8 -8 -9 -10
-6 -6 -5 -5 -3 -3 -3 -3 -4 -7 -8 -7 -7 -9 -8 -8 -6 -4 -2 -2 -3 -2 -3 -3 -2 -3 -1 -2 -2 -3 -2 -3 -2 -3 -2 -4 -6 -6 -6 -6 -6 -6 -5 -4 -5 -6 -7 -8 -9 -10 -10 -10 -11 -11
-6 -5 -5 -5 -3 -3 -3 -3 -4 -7 -7 -7 -9 -7 -7 -4 -4 -4 -5 -4 -2 -3 -3 -4 -4 -4 -1 -3 -4 -2 -2 -2 -1 -2 -2 -2 -4 -6 -7 -6 -7 -7 -7 -7 -6 -7 -8 -9 -9 -10 -11 -11 -12 -12
-9 -7 -5 -4 -4 -4 -4 -4 -6 -7 -8 -9 -8 -7 -4 -5 -4 -6 -4 -5 -3 -4 -3 -3 -3 -3 -1 -2 -2 -2 -3 -1 -1 -1 -0 -3 -7 -7 -7 -8 -9 -10 -10 -10 -9 -9 -9 -10 -10 -11 -12 -13 -13 -13
-10 -8 -6 -5 -4 -4 -4 -5 -6 -7 -8 -6 -7 -6 -5 -5 -5 -4 -4 -3 -3 -4 -3 -2 -4 -4 -0 -2 -2 -3 -1 -2 -3 -2 -4 -8 -7 -8 -9 -9 -10 -11 -11 -12 -12 -12 -12 -12 -13 -13 -13 -13 -13 -14
-12 -9 -8 -6 -5 -4 -4 -4 -5 -7 -8 -9 -7 -7 -7 -6 -5 -7 -6 -6 -5 -4 -4 -3 -1 -2 -1 -4 -7 -7 -6 -4 -1 -1 -5 -9 -8 -8 -9 -10 -11 -11 -12 -13 -13 -13 -13 -14 -14 -14 -14 -14 -14 -14
-12 -13 -11 -9 -7 -6 -4 -5 -5 -7 -10 -7 -5 -7 -8 -6 -3 -3 -4 -4 -2 -1 -2 -2 -2 -2 -3 -3 -3 -5 -2 -1 -4 -5 -10 -8 -8 -9 -10 -10 -11 -12 -13 -13 -14 -14 -14 -14 -14 -14 -14 -14 -14 -14
-10 -11 -13 -11 -10 -6 -5 -5 -5 -7 -9 -7 -5 -6 -5 -5 -5 -5 -2 -2 -3 -1 -2 -3 -3 -4 -3 -5 -2 -4 -4 -5 -7 -10 -8 -8 -9 -9 -10 -10 -12 -13 -14 -14 -14 -14 -15 -15 -15 -16 -16 -16 -16 -16
-8 -10 -13 -13 -12 -8 -5 -5 -5 -7 -8 -6 -6 -5 -4 -5 -4 -3 -2 -1 -1 -2 -2 -3 -4 -3 -3 -2 -2 -3 -4 -9 -7 -8 -8 -8 -9 -9 -10 -12 -13 -14 -14 -14 -15 -15 -15 -15 -15 -15 -15 -15 -15 -15
-8 -10 -12 -11 -9 -6 -5 -5 -6 -8 -6 -6 -5 -6 -5 -4 -4 -4 -3 -3 -1 -1 -2 -4 -4 -3 -3 -3 -7 -9 -7 -8 -7 -8 -8 -8 -9 -10 -12 -13 -13 -14 -14 -15 -15 -15 -15 -15 -15 -15 -14 -14 -15 -15
-10 -10 -13 -11 -8 -6 -6 -6 -6 -6 -6 -5 -5 -5 -4 -5 -8 -8 -6 -4 -3 -2 -3 -4 -7 -6 -6 -6 -6 -6 -6 -7 -8 -8 -8 -9 -10 -11 -13 -13 -14 -14 -15 -15 -15 -14 -14 -14 -15 -15 -15 -14 -15 -14
-10 -11 -14 -11 -7 -5 -6 -6 -7 -6 -6 -7 -6 -6 -5 -5 -5 -7 -6 -6 -3 -2 -2 -5 -7 -5 -5 -5 -5 -5 -6 -7 -8 -9 -9 -10 -11 -13 -13 -14 -14 -15 -15 -14 -14 -14 -15 -15 -15 -15 -15 -16 -16 -15
-8 -10 -11 -10 -6 -5 -5 -6 -7 -7 -6 -7 -6 -6 -5 -6 -6 -6 -6 -5 -3 -2 -4 -3 -4 -5 -5 -6 -6 -6 -6 -7 -8 -9 -10 -11 -12 -13 -13 -14 -15 -15 -14 -15 -15 -14 -14 -14 -14 -14 -15 -16 -16 -17
-9 -8 -7 -6 -5 -5 -5 -5 -5 -6 -7 -6 -5 -5 -6 -6 -5 -5 -5 -4 -4 -4 -4 -5 -4 -5 -5 -6 -7 -7 -7 -8 -9 -10 -11 -12 -13 -13 -14 -15 -15 -14 -14 -15 -15 -15 -14 -13 -13 -13 -14 -15 -17 -18
-9 -9 -8 -8 -6 -5 -5 -4 -6 -6 -6 -6 -5 -6 -6 -5 -5 -6 -5 -6 -6 -6 -5 -5 -6 -6 -6 -6 -7 -8 -8 -8 -9 -10 -12 -13 -14 -15 -15 -15 -15 -15 -15 -14 -13 -13 -13 -13 -13 -13 -15 -16 -18 -18
-11 -9 -7 -8 -7 -6 -5 -5 -5 -6 -6 -6 -6 -8 -7 -5 -6 -6 -9 -7 -6 -6 -6 -6 -6 -6 -6 -7 -8 -9 -9 -10 -11 -11 -12 -13 -15 -15 -15 -15 -15 -14 -14 -13 -12 -12 -12 -12 -13 -15 -17 -18 -18 -17
-7 -8 -6 -6 -4 -5 -8 -8 -6 -6 -10 -10 -7 -10 -8 -6 -10 -11 -10 -8 -7 -7 -7 -6 -6 -6 -7 -7 -8 -9 -10 -11 -12 -13 -13 -14 -15 -14 -13 -13 -14 -13 -12 -11 -11 -13 -13 -14 -15 -16 -19 -18 -17 -17
-7 -6 -5 -5 -5 -6 -7 -8 -9 -10 -11 -9 -10 -8 -8 -13 -10 -9 -10 -7 -7 -8 -7 -7 -6 -6 -7 -7 -8 -9 -11 -11 -11 -14 -15 -15 -14 -15 -14 -14 -14 -13 -12 -11 -11 -12 -13 -14 -16 -17 -18 -19 -18 -18
-6 -6 -6 -5 -5 -4 -5 -6 -6 -8 -9 -10 -12 -12 -12 -10 -11 -11 -8 -8 -8 -7 -8 -8 -7 -7 -7 -8 -8 -9 -10 -10 -9 -10 -13 -14 -14 -14 -14 -14 -14 -14 -13 -13 -13 -14 -16 -18 -17 -18 -18 -18 -18 -18
-6 -6 -9 -6 -6 -6 -6 -8 -8 -9 -11 -8 -9 -11 -11 -11 -13 -11 -9 -9 -8 -9 -8 -8 -8 -8 -7 -8 -8 -9 -9 -10 -10 -12 -13 -12 -11 -11 -11 -12 -12 -14 -14 -16 -16 -17 -17 -18 -19 -20 -19 -19 -18 -20
-7 -7 -7 -9 -7 -8 -9 -9 -10 -9 -9 -8 -12 -14 -12 -12 -12 -10 -9 -9 -10 -9 -8 -9 -9 -9 -9 -9 -9 -9 -9 -10 -10 -11 -11 -10 -11 -12 -12 -11 -12 -13 -13 -13 -13 -13 -15 -18 -22 -22 -20 -18 -18 -19
-8 -8 -9 -10 -10 -10 -10 -10 -10 -10 -10 -10 -10 -11 -12 -12 -12 -11 -9 -9 -9 -9 -9 -9 -9 -9 -10 -10 -10 -10 -9 -10 -10 -11 -12 -12 -13 -12 -12 -12 -13 -13 -13 -12 -12 -13 -15 -21 -27 -25 -20 -19 -19 -20
-8 -8 -9 -10 -11 -11 -12 -11 -10 -10 -10 -10 -10 -13 -11 -12 -12 -12 -11 -10 -9 -9 -9 -8 -8 -9 -8 -9 -9 -9 -10 -10 -10 -10 -10 -10 -10 -11 -11 -12 -13 -15 -14 -13 -15 -18 -24 -27 -27 -27 -23 -21 -20 -20
-8 -8 -10 -13 -12 -11 -11 -11 -11 -11 -11 -11 -12 -12 -12 -12 -14 -14 -14 -12 -11 -10 -10 -10 -10 -9 -9 -9 -9 -9 -10 -10 -10 -10 -11 -11 -11 -11 -14 -20 -22 -24 -25 -25 -26 -26 -24 -25 -27 -27 -26 -25 -23 -21
-9 -10 -11 -12 -12 -11 -11 -10 -9 -10 -10 -11 -11 -12 -13 -15 -17 -16 -16 -15 -14 -13 -12 -11 -11 -11 -11 -11 -11 -11 -11 -12 -12 -12 -13 -13 -13 -15 -18 -17 -17 -20 -24 -25 -23 -22 -22 -23 -23 -24 -24 -24 -23 -22